Location: Tierra del Sol
(32.6128°N, 116.3319°W)
Time: 21:45:28
(UTC-07:00)

Vanguard 2 - Pass Details

Date: 27 April 2018
Orbit: 552 x 2940 km, 32.9° (Epoch: 20 May)

Event Time Altitude Azimuth Distance (km) Brightness Sun altitude
Rises 03:05:20 0° 279° (W) 3,627 - -32.4°
Reaches altitude 10° 03:08:42 10° 267° (W) 2,361 - -31.9°
Maximum altitude 03:12:58 25° 212° (SSW) 1,281 - -31.3°
Drops below altitude 10° 03:16:24 10° 155° (SSE) 1,865 - -30.8°
Sets 03:18:45 0° 140° (SE) 2,707 - -30.4°
